TimePDT,TemperatureF,Dew PointF,Humidity,Sea Level PressureIn,VisibilityMPH,Wind Direction,Wind SpeedMPH,Gust SpeedMPH,PrecipitationIn,Events,Conditions,WindDirDegrees,DateUTC
12:53 AM,27.0,23.0,85,30.24,10.0,ESE,9.2,-,N/A,,Clear,110,2012-10-04 07:53:00
1:41 AM,26.6,23.0,86,30.28,10.0,ESE,6.9,17.3,N/A,,Partly Cloudy,120,2012-10-04 08:41:00
1:53 AM,27.0,23.0,85,30.22,10.0,ESE,10.4,18.4,N/A,,Partly Cloudy,110,2012-10-04 08:53:00
2:53 AM,26.1,24.1,92,30.22,10.0,ESE,8.1,18.4,N/A,,Partly Cloudy,120,2012-10-04 09:53:00
3:53 AM,26.1,23.0,88,30.19,10.0,ESE,8.1,17.3,N/A,,Clear,110,2012-10-04 10:53:00
6:53 AM,24.1,21.9,91,30.35,10.0,ESE,8.1,-,N/A,,Clear,110,2012-10-04 13:53:00
7:53 AM,25.0,23.0,92,30.35,10.0,East,8.1,-,N/A,,Clear,100,2012-10-04 14:53:00
8:53 AM,28.0,24.1,85,30.34,10.0,ESE,8.1,-,N/A,,Clear,110,2012-10-04 15:53:00
9:24 AM,28.4,24.8,86,30.25,10.0,Variable,3.5,-,N/A,,Partly Cloudy,0,2012-10-04 16:24:00
9:53 AM,30.0,25.0,82,30.34,10.0,Variable,4.6,-,N/A,,Mostly Cloudy,0,2012-10-04 16:53:00
10:00 AM,28.4,24.8,86,30.25,10.0,Variable,4.6,-,N/A,,Scattered Clouds,0,2012-10-04 17:00:00
10:07 AM,30.2,24.8,80,30.25,10.0,Calm,Calm,-,N/A,,Mostly Cloudy,0,2012-10-04 17:07:00
10:27 AM,32.0,24.8,75,30.25,10.0,Variable,3.5,-,N/A,,Scattered Clouds,0,2012-10-04 17:27:00
10:53 AM,32.0,25.0,75,30.20,10.0,Calm,Calm,-,N/A,,Scattered Clouds,0,2012-10-04 17:53:00
11:03 AM,30.2,24.8,80,30.25,10.0,Calm,Calm,-,N/A,,Mostly Cloudy,0,2012-10-04 18:03:00
11:53 AM,32.0,26.1,79,30.19,10.0,Calm,Calm,-,N/A,,Overcast,0,2012-10-04 18:53:00
12:23 PM,32.0,24.8,75,30.25,10.0,Variable,4.6,-,N/A,,Overcast,0,2012-10-04 19:23:00
12:53 PM,36.0,26.1,67,30.18,10.0,Calm,Calm,-,N/A,,Mostly Cloudy,0,2012-10-04 19:53:00
1:11 PM,35.6,24.8,65,30.25,10.0,Calm,Calm,-,N/A,,Scattered Clouds,0,2012-10-04 20:11:00
1:53 PM,36.0,24.1,62,30.18,10.0,Calm,Calm,-,N/A,,Partly Cloudy,0,2012-10-04 20:53:00
2:25 PM,37.4,24.8,60,30.25,10.0,Calm,Calm,-,N/A,,Mostly Cloudy,0,2012-10-04 21:25:00
2:40 PM,35.6,24.8,65,30.25,10.0,Calm,Calm,-,N/A,,Scattered Clouds,0,2012-10-04 21:40:00
2:53 PM,36.0,24.1,62,30.19,10.0,Variable,3.5,-,N/A,,Partly Cloudy,0,2012-10-04 21:53:00
3:19 PM,37.4,24.8,60,30.25,10.0,Calm,Calm,-,N/A,,Mostly Cloudy,0,2012-10-04 22:19:00
3:53 PM,36.0,23.0,59,30.19,10.0,Calm,Calm,-,N/A,,Mostly Cloudy,0,2012-10-04 22:53:00
4:18 PM,33.8,23.0,65,30.26,10.0,Calm,Calm,-,N/A,,Scattered Clouds,0,2012-10-04 23:18:00
4:53 PM,33.1,21.9,64,30.35,10.0,Calm,Calm,-,N/A,,Scattered Clouds,0,2012-10-04 23:53:00
5:53 PM,30.0,21.0,69,30.38,10.0,ESE,5.8,-,N/A,,Clear,120,2012-10-05 00:53:00
6:53 PM,28.0,21.0,75,30.39,10.0,ESE,8.1,-,N/A,,Clear,120,2012-10-05 01:53:00
7:53 PM,28.0,21.0,75,30.38,10.0,ESE,8.1,-,N/A,,Clear,120,2012-10-05 02:53:00
8:53 PM,28.0,21.0,75,30.38,10.0,ESE,9.2,-,N/A,,Clear,120,2012-10-05 03:53:00
9:53 PM,28.0,19.9,72,30.36,10.0,ESE,9.2,17.3,N/A,,Clear,120,2012-10-05 04:53:00
10:53 PM,28.0,19.0,69,30.21,10.0,East,9.2,-,N/A,,Clear,100,2012-10-05 05:53:00
11:53 PM,27.0,19.0,72,30.22,10.0,ESE,9.2,-,N/A,,Clear,120,2012-10-05 06:53:00